Привокзальный

Россия / Московская область     55°59′31″N   35°56′28″E
В апреле 2022 года жителям России запретили посещать сайт meteo.paraplan.net по решению Генеральной прокуратуры. Аудитория сайта уменьшилась в 10 раз. Владельцы сайта не видят смысла в поддержке погодного сервера в таких условиях. Сайт будет закрыт в октябре.
темп.,
°C
ветер,
м/с
пор.,
м/с
влажн.,
%
обл.,
%
осадки,
мм/ч
давл.,
гПа
погр.,
м
25 сентября, вс
вс2500:00+6сз51097100 0.6 998658
03:00+6сз51098100 1.3 998579
06:00+7сз51098100 0.1 999484
09:00+7ссз3698100 1.3 1000408
12:00+8ссв3486100 0.3 1001596
15:00+8ссв3491100 0.7 1003390
18:00+7ссз2395100 0.3 1004117
21:00+6сз2495100 0.5 1005169
26 сентября, пн
пн2600:00+6зсз2496100 0.1 1006155
03:00+6з249699 0.3 1007165
06:00+6зсз2596100 0.1 1007209
09:00+6зсз2592100 0.2 1008255
12:00+9зсз357677 0.1 1009811
15:00+10зсз457271 0.4 10101051
18:00+8з258766 0.3 1011162
21:00+5з229535 0.3 101221
27 сентября, вт
вт2700:00+5юз119397 0.0 101214
03:00+6юз2288100 0.0 101240
06:00+6ююв1289100 0.0 101225
09:00+7ююв2387100 0.0 1013159
12:00+11ююв237348 0.0 1013578
15:00+13юв236234 0.1 10131069
18:00+9в368234 0.1 1013114
21:00+7вюв3889100 0.1 1014177
28 сентября, ср
ср2800:00+6вюв41191100 0.0 1013296
03:00+6вюв51287100 0.0 1012389
06:00+6вюв51490100 0.0 1011499
09:00+8вюв71579100 0.0 1010866
12:00+9вюв71574100 0.1 1009981
15:00+8в71590100 1.9 1008932
18:00+7в71593100 2.2 1007846
21:00+7в71494100 3.6 1007661
29 сентября, чт
чт2900:00+7в61495100 1.2 1008611
03:00+6в51195100 2.5 1008539
06:00+6в41095100 0.4 1009470
09:00+6в3995100 1.4 1010464
12:00+6в3795100 0.4 1012414
15:00+6в3595100 0.6 1014372
18:00+5в3695100 0.1 1016384
21:00+5вюв379598 0.1 1018393